Ashtabula, OH

12:35 AM EDT on June 25, 2017 (GMT -0400)
Ashtabula County

Weather History for KHZY - February, 2014

Change the Weather History Date:

Tuesday, February 25, 2014

  Actual Average (KGKJ) Record (KGKJ)
Temperature  
Mean Temperature 16 °F -  
Max Temperature 21 °F 38 °F 67 °F (1961)
Min Temperature 12 °F 20 °F -4 °F (1963)
Degree Days  
Heating Degree Days 48    
Moisture  
Dew Point 11 °F    
Average Humidity 76    
Maximum Humidity 86    
Minimum Humidity 52    
Precipitation  
Precipitation 0.03 in - - ()
Sea Level Pressure  
Sea Level Pressure 30.06 in    
Wind  
Wind Speed 8 mph (WNW)    
Max Wind Speed 15 mph    
Max Gust Speed 26 mph    
Visibility 4 miles    
Events Snow    
Averages and records for this station are not official NWS values.
T = Trace of Precipitation, MM = Missing Value Source: NWS Daily Summary

Daily Weather History Graph

Daily Weather History Graph

Search for Another Location

Airport or City:

Trip Planner

Search our weather history database for the weather conditions in past years. The results will help you decide how hot, cold, wet, or windy it might be!

Date:

Astronomy

Feb. 25, 2014 Rise Set
Actual Time 7:03 AM EST 6:08 PM EST
Civil Twilight 6:35 AM EST 6:36 PM EST
Nautical Twilight 6:03 AM EST 7:08 PM EST
Astronomical Twilight 5:31 AM EST 7:41 PM EST
Moon 3:59 AM EST 2:10 PM EST
Length of Visible Light 12h 00m
Length of Day
11h 04m
Waning Crescent, 18% of the Moon is Illuminated
Feb 25
Waning Crescent
Mar 1
New
Mar 8
First Quarter
Mar 16
Full
Mar 23
Last Quarter

Hourly Weather History & Observations

Time (EST) Temp. Windchill Dew Point Humidity Pressure Visibility Wind Dir Wind Speed Gust Speed Precip Events Conditions
12:12 AM 19.4 °F 7.2 °F 12.2 °F 74% 30.10 in 8.0 mi NW 11.5 mph - 0.00 in Snow Light Snow
12:21 AM 19.4 °F 9.5 °F 12.2 °F 74% 30.10 in 5.0 mi NW 8.1 mph - 0.00 in Snow Light Snow
12:53 AM 19.0 °F 10.0 °F 12.0 °F 74% 30.14 in 7.0 mi NW 6.9 mph - 0.00 in Snow Light Snow
1:12 AM 19.4 °F 9.5 °F 12.2 °F 74% 30.10 in 2.5 mi WNW 8.1 mph - 0.00 in Snow Light Snow
1:33 AM 17.6 °F 9.3 °F 12.2 °F 79% 30.10 in 1.8 mi WNW 5.8 mph - 0.00 in Snow Light Snow
1:49 AM 17.6 °F 12.3 °F 12.2 °F 79% 30.09 in 3.0 mi NW 3.5 mph - 0.00 in Snow Light Snow
1:53 AM 18.0 °F 7.7 °F 12.9 °F 81% 30.14 in 3.0 mi NNW 8.1 mph - 0.00 in Snow Light Snow
2:02 AM 17.6 °F 8.2 °F 12.2 °F 79% 30.09 in 2.0 mi NW 6.9 mph - 0.00 in Snow Light Snow
2:24 AM 17.6 °F 8.2 °F 12.2 °F 79% 30.09 in 3.0 mi NNW 6.9 mph - 0.00 in Snow Light Snow
2:32 AM 17.6 °F 9.3 °F 12.2 °F 79% 30.09 in 2.5 mi NW 5.8 mph - 0.00 in Snow Light Snow
2:39 AM 17.6 °F 10.7 °F 12.2 °F 79% 30.09 in 3.0 mi NW 4.6 mph - 0.00 in Snow Light Snow
2:50 AM 17.6 °F 10.7 °F 12.2 °F 79% 30.07 in 3.0 mi North 4.6 mph - 0.00 in Snow Light Snow
2:53 AM 18.0 °F 11.1 °F 12.0 °F 78% 30.12 in 3.0 mi NNW 4.6 mph - 0.00 in Snow Light Snow
3:04 AM 17.6 °F 10.7 °F 12.2 °F 79% 30.08 in 2.5 mi NW 4.6 mph - 0.00 in Snow Light Snow
3:17 AM 17.6 °F 8.2 °F 10.4 °F 73% 30.08 in 3.0 mi NW 6.9 mph - 0.00 in Snow Light Snow
3:49 AM 15.8 °F 8.6 °F 10.4 °F 79% 30.08 in 2.5 mi NNW 4.6 mph - 0.00 in Snow Light Snow
3:53 AM 16.0 °F 6.3 °F 10.0 °F 77% 30.13 in 2.0 mi NNW 6.9 mph - 0.00 in Snow Light Snow
4:06 AM 15.8 °F 7.2 °F 10.4 °F 79% 30.08 in 2.5 mi NNW 5.8 mph - 0.00 in Snow Light Snow
4:12 AM 15.8 °F 6.1 °F 10.4 °F 79% 30.07 in 3.0 mi NNW 6.9 mph - 0.00 in Snow Light Snow
4:50 AM 15.8 °F 7.2 °F 8.6 °F 73% 30.08 in 3.0 mi NNW 5.8 mph - 0.00 in Snow Light Snow
4:53 AM 16.0 °F 7.4 °F 9.0 °F 74% 30.14 in 3.0 mi NW 5.8 mph - 0.00 in Snow Light Snow
5:00 AM 15.8 °F 8.6 °F 8.6 °F 73% 30.09 in 2.0 mi NW 4.6 mph - 0.00 in Snow Light Snow
5:11 AM 15.8 °F 7.2 °F 10.4 °F 79% 30.09 in 1.8 mi NW 5.8 mph - 0.00 in Snow Light Snow
5:23 AM 15.8 °F 5.1 °F 8.6 °F 73% 30.09 in 2.5 mi NW 8.1 mph - 0.00 in Snow Light Snow
5:41 AM 15.8 °F 6.1 °F 8.6 °F 73% 30.09 in 1.5 mi NNW 6.9 mph - 0.00 in Snow Light Snow
5:53 AM 14.0 °F 5.1 °F 9.0 °F 80% 30.14 in 1.5 mi NNW 5.8 mph - 0.00 in Snow Light Snow
6:30 AM 12.2 °F 0.7 °F 8.6 °F 85% 30.09 in 2.0 mi NW 8.1 mph - 0.00 in Snow Light Snow
6:53 AM 12.9 °F 2.6 °F 7.0 °F 77% 30.14 in 2.5 mi WNW 6.9 mph - 0.00 in Snow Light Snow
7:16 AM 12.2 °F 2.9 °F 8.6 °F 85% 30.10 in 1.2 mi WNW 5.8 mph - 0.00 in Snow Light Snow
7:24 AM 12.2 °F 1.7 °F 8.6 °F 85% 30.10 in 1.0 mi WNW 6.9 mph - 0.00 in Snow Light Snow
7:31 AM 12.2 °F 1.7 °F 6.8 °F 79% 30.10 in 1.5 mi WNW 6.9 mph - 0.00 in Snow Light Snow
7:40 AM 12.2 °F 2.9 °F 6.8 °F 79% 30.10 in 2.5 mi WNW 5.8 mph - 0.00 in Snow Light Snow
7:53 AM 12.0 °F 1.5 °F 6.1 °F 77% 30.16 in 2.5 mi WNW 6.9 mph - 0.00 in Snow Light Snow
8:38 AM 12.2 °F 2.9 °F 6.8 °F 79% 30.12 in 5.0 mi West 5.8 mph - 0.00 in Snow Light Snow
8:53 AM 12.9 °F 3.8 °F 6.1 °F 74% 30.17 in 7.0 mi West 5.8 mph - 0.00 in   Overcast
9:53 AM 15.1 °F 3.3 °F 3.0 °F 59% 30.16 in 10.0 mi WNW 9.2 mph - N/A   Scattered Clouds
10:53 AM 17.1 °F 10.0 °F 3.0 °F 54% 30.16 in 10.0 mi WNW 4.6 mph - N/A   Clear
11:53 AM 18.0 °F 8.7 °F 3.0 °F 52% 30.15 in 10.0 mi West 6.9 mph - N/A   Partly Cloudy
12:53 PM 19.0 °F 6.8 °F 3.9 °F 52% 30.13 in 10.0 mi WSW 11.5 mph - 0.01 in   Clear
1:53 PM 21.0 °F 11.4 °F 6.1 °F 53% 30.10 in 10.0 mi West 8.1 mph - 0.02 in   Partly Cloudy
2:53 PM 21.0 °F 10.6 °F 8.1 °F 57% 30.08 in 10.0 mi West 9.2 mph 17.3 mph N/A   Overcast
3:53 PM 19.9 °F 7.3 °F 9.0 °F 62% 30.08 in 8.0 mi WNW 12.7 mph - 0.00 in Snow Light Snow
4:53 PM 19.9 °F 8.6 °F 9.0 °F 62% 30.06 in 10.0 mi West 10.4 mph - 0.00 in   Overcast
5:53 PM 19.9 °F 8.6 °F 10.0 °F 65% 30.07 in 10.0 mi West 10.4 mph - N/A   Overcast
6:53 PM 19.9 °F 10.1 °F 12.0 °F 71% 30.06 in 4.0 mi SW 8.1 mph - 0.00 in Snow Light Snow
7:02 PM 19.4 °F 11.5 °F 12.2 °F 74% 30.01 in 2.5 mi SW 5.8 mph - 0.00 in Snow Light Snow
7:17 PM 19.4 °F 11.5 °F 14.0 °F 80% 30.01 in 1.5 mi WSW 5.8 mph - 0.00 in Snow Light Snow
7:53 PM 19.0 °F 10.0 °F 15.1 °F 85% 30.04 in 1.8 mi SW 6.9 mph - 0.00 in Snow Light Snow
8:33 PM 19.4 °F 9.5 °F 14.0 °F 80% 29.97 in 2.5 mi SW 8.1 mph - 0.00 in Snow Light Snow
8:42 PM 19.4 °F 9.5 °F 14.0 °F 80% 29.97 in 3.0 mi SW 8.1 mph - 0.00 in Snow Light Snow
8:53 PM 19.9 °F 11.1 °F 14.0 °F 78% 30.02 in 4.0 mi WSW 6.9 mph - 0.00 in Snow Light Snow
9:03 PM 19.4 °F 10.4 °F 14.0 °F 80% 29.97 in 2.5 mi West 6.9 mph - 0.00 in Snow Light Snow
9:21 PM 19.4 °F 11.5 °F 14.0 °F 80% 29.96 in 1.5 mi WSW 5.8 mph - 0.00 in Snow Light Snow
9:32 PM 19.4 °F 12.8 °F 14.0 °F 80% 29.96 in 1.0 mi WSW 4.6 mph - 0.00 in Snow Light Snow
9:46 PM 19.4 °F 11.5 °F 15.8 °F 86% 29.96 in 0.8 mi WSW 5.8 mph - 0.00 in Snow Light Snow
9:53 PM 19.0 °F 9.0 °F 15.1 °F 85% 30.01 in 0.8 mi WSW 8.1 mph - 0.00 in Snow Light Snow
9:58 PM 19.4 °F 10.4 °F 15.8 °F 86% 29.95 in 1.0 mi WSW 6.9 mph - 0.00 in Snow Light Snow
10:09 PM 19.4 °F 10.4 °F 15.8 °F 86% 29.95 in 1.2 mi WSW 6.9 mph - 0.00 in Snow Light Snow
10:14 PM 19.4 °F 9.5 °F 15.8 °F 86% 29.95 in 0.8 mi WSW 8.1 mph - 0.00 in Snow Light Snow
10:30 PM 19.4 °F 6.6 °F 15.8 °F 86% 29.95 in 1.2 mi West 12.7 mph - 0.00 in Snow Light Snow
10:38 PM 19.4 °F 7.2 °F 14.0 °F 80% 29.95 in 2.0 mi West 11.5 mph - 0.00 in Snow Light Snow
10:53 PM 19.9 °F 8.6 °F 14.0 °F 78% 29.99 in 1.8 mi West 10.4 mph 19.6 mph 0.00 in Snow Light Snow
11:00 PM 19.4 °F 6.6 °F 14.0 °F 80% 29.95 in 2.5 mi WNW 12.7 mph 19.6 mph 0.00 in Snow Light Snow
11:35 PM 19.4 °F 5.5 °F 12.2 °F 74% 29.95 in 1.8 mi West 15.0 mph 26.5 mph 0.00 in Snow Light Snow
11:39 PM 19.4 °F 6.6 °F 10.4 °F 68% 29.95 in 3.0 mi West 12.7 mph 21.9 mph 0.00 in Snow Light Snow
11:53 PM 19.0 °F 6.1 °F 10.9 °F 71% 29.99 in 9.0 mi West 12.7 mph 18.4 mph 0.00 in Snow Light Snow